Tracking 21472 objects as of 22-Sep-2020
HD Live streaming from Space Station
objects crossing your sky now

SS 1

Track SS 1 now!
10-day predictions
SS 1 is classified as:


NORAD ID: 10529
Int'l Code: 1977-112D
Perigee: 424.2 km
Apogee: 1,504.9 km
Inclination: 63.3 °
Period: 104.2 minutes
Semi major axis: 7335 km
RCS: Unknown
Launch date: December 8, 1977
Source: United States (US)
Launch site: AIR FORCE WESTERN TEST RANGE (AFWTR)
aabbcc
Your satellite tracking list
Your tracking list is empty




NASA's NSSDC Master Catalog

Two Line Element Set (TLE):
1 10529U 77112D   20265.82186461  .00000429  00000-0  62844-4 0  9999
2 10529  63.3086  62.6196 0736647 129.7547 237.0812 13.81835912 61936
Source of the keplerian elements: McCants